Location: Capel Gartheli
(52.1833°N, 4.0667°W)
Time: 23:28:46
(UTC+00:00)

Cosmos 1500 Rocket - Pass Details

Date: 18 February 2020
Orbit: 602 x 632 km, 82.5° (Epoch: 05 April)

Event Time Altitude Azimuth Distance (km) Brightness Sun altitude
Rises 05:10:17 0° 349° (NNW) 2,935 7.0 -21.5°
Reaches altitude 10° 05:12:32 10° 349° (N) 2,019 6.2 -21.2°
Maximum altitude 05:17:02 89° 265° (W) 633 3.5 -20.5°
Drops below altitude 10° 05:21:27 10° 172° (S) 1,986 6.2 -19.8°
Sets 05:23:39 0° 172° (S) 2,882 7.0 -19.5°
